map of RVN home
RVN - Airport
Location
City:  Rovaniemi, Lappi (Lappland, Lapland), Finland
ICAO:EFRO
IATA:RVN

Details
Type:Airport (Aerodrome, Airfield)
Latitude:6633'42"N (66.561667)
Longitude:2549'51"E (25.830833)
Elevation:645 ft (197 m)
Variation:11.65E (WMM2015 magnetic declination)
0.19 annual change
Runways:1
Longest:9849 × 197 ft (3002 × 60 m), paved

Time
Time Zone:UTC+2 (DST+3)
Local Time:

Weather
METAR:EFRO 151520Z AUTO 33005KT CAVOK 07/04 Q1011
TAF:EFRO 151436Z 1515/1615 01004KT 9999 SCT020
BECMG 1601/1603 0800 FG
BECMG 1606/1608 9999 NSW SCT018

Related Locations
Nearby:
Farthest:NZTB: 11352 mi / 18269 km
Terra Nova Bay [Mario Zucchelli Station], AQ

Find:

   beyond  
but within

Other Information
Maps:
NOTAMs:
Links:
Sources:

  
  • flag of Finland
  

Sectional Chart

Flight Planning
at skyvector.com

Satellite Image

Google Maps Satellite view

 

Copyright © 2004-2018 Karl L. Swartz. All rights reserved.
The Great Circle Mapper name and logo are trademarks of the Great Circle Mapper.
All other trademarks mentioned herein belong to their respective owners.
Please see credits for attibutions and further copyright information.

  Follow gcmap on Facebook Follow gcmap on Twitter Follow gcmap on Google+ GCmap on LinkedIn

hCard Microformat

Geo Microformat